Carlsbad, CA

5:10 PM PST on November 17, 2019 (GMT -0800)
McClellan-Palomar

Weather History for KCRQ - October, 2019

Change the Weather History Date:

Sunday, October 13, 2019

  Actual Average Record
Temperature  
Mean Temperature 62 °F -  
Max Temperature 70 °F 70 °F 89 °F (2011)
Min Temperature 55 °F 56 °F -14 °F (1999)
Degree Days  
Heating Degree Days 3    
Growing Degree Days 12 (Base 50)    
Moisture  
Dew Point 56 °F    
Average Humidity 83    
Maximum Humidity 100    
Minimum Humidity 63    
Precipitation  
Precipitation 0.00 in - - ()
Sea Level Pressure  
Sea Level Pressure 29.85 in    
Wind  
Wind Speed 3 mph (South)    
Max Wind Speed 12 mph    
Max Gust Speed -    
Visibility 7 miles    
Events Fog    
Averages and records for this station are not official NWS values.
T = Trace of Precipitation, MM = Missing Value Source: NWS Daily Summary

Daily Weather History Graph

Daily Weather History Graph

Search for Another Location

Airport or City:

Astronomy

Oct. 13, 2019 Rise Set
Actual Time 6:51 AM PDT 6:18 PM PDT
Civil Twilight 6:26 AM PDT 6:43 PM PDT
Nautical Twilight 5:58 AM PDT 7:11 PM PDT
Astronomical Twilight 5:29 AM PDT 7:40 PM PDT
Moon 6:40 PM PDT (10/13) 6:34 AM PDT (10/13)
Length of Visible Light 12h 16m
Length of Day
11h 26m
Full, 100% of the Moon is Illuminated
Oct 13
Full
Oct 13
Full
Oct 21
Last Quarter
Oct 27
New
Nov 4
First Quarter

Hourly Weather History & Observations

Time (PDT) Temp. Dew Point Humidity Pressure Visibility Wind Dir Wind Speed Gust Speed Precip Events Conditions
12:53 AM 60.1 °F 55.9 °F 86% 29.83 in 10.0 mi Calm Calm - N/A   Clear
1:53 AM 59.0 °F 54.0 °F 83% 29.83 in 10.0 mi Calm Calm - N/A   Clear
2:53 AM 57.9 °F 52.0 °F 81% 29.83 in 10.0 mi Calm Calm - N/A   Scattered Clouds
3:02 AM 57.9 °F 52.0 °F 81% 29.83 in 10.0 mi Calm Calm - N/A   Mostly Cloudy
3:11 AM 57.9 °F 52.0 °F 81% 29.83 in 10.0 mi SE 3.5 mph - N/A   Mostly Cloudy
3:51 AM 57.2 °F 55.4 °F 94% 29.83 in 2.0 mi SSE 4.6 mph - N/A   Overcast
3:53 AM 57.9 °F 55.9 °F 93% 29.83 in 1.2 mi SSE 3.5 mph - N/A   Overcast
4:01 AM 57.9 °F 57.0 °F 97% 29.83 in 0.2 mi Calm Calm - N/A Fog Fog
4:08 AM 57.9 °F 57.0 °F 97% 29.83 in 0.2 mi Calm Calm - N/A Fog Fog
4:19 AM 57.9 °F 57.0 °F 97% 29.83 in 0.2 mi Calm Calm - N/A Fog Fog
4:27 AM 59.0 °F 57.9 °F 96% 29.83 in 0.2 mi Calm Calm - N/A Fog Fog
4:53 AM 59.0 °F 57.9 °F 96% 29.83 in 0.2 mi SSE 5.8 mph - N/A Fog Fog
5:40 AM 59.0 °F 57.9 °F 96% 29.84 in 0.5 mi SSE 4.6 mph - N/A Fog Fog
5:53 AM 57.9 °F 57.9 °F 100% 29.83 in 1.0 mi SE 5.8 mph - N/A   Mist
6:08 AM 57.9 °F 57.9 °F 100% 29.84 in 0.8 mi SE 3.5 mph - N/A   Mist
6:32 AM 57.9 °F 57.0 °F 97% 29.85 in 1.0 mi East 4.6 mph - N/A   Mist
6:40 AM 57.9 °F 57.0 °F 97% 29.84 in 0.8 mi East 4.6 mph - N/A   Overcast
6:53 AM 57.0 °F 57.0 °F 100% 29.84 in 0.5 mi East 3.5 mph - N/A Fog Fog
7:15 AM 57.0 °F 55.0 °F 93% 29.85 in 2.0 mi East 4.6 mph - N/A   Mostly Cloudy
7:17 AM 55.9 °F 55.0 °F 97% 29.85 in 3.0 mi East 4.6 mph - N/A   Mostly Cloudy
7:29 AM 55.9 °F 55.0 °F 97% 29.85 in 8.0 mi East 4.6 mph - N/A   Scattered Clouds
7:53 AM 57.9 °F 57.0 °F 97% 29.86 in 9.0 mi East 3.5 mph - N/A   Clear
8:53 AM 62.1 °F 57.0 °F 84% 29.88 in 10.0 mi Calm Calm - N/A   Scattered Clouds
9:07 AM 63.0 °F 57.0 °F 81% 29.88 in 10.0 mi Calm Calm - N/A   Mostly Cloudy
9:35 AM 64.9 °F 57.0 °F 75% 29.88 in 10.0 mi Calm Calm - N/A   Scattered Clouds
9:53 AM 66.0 °F 57.0 °F 73% 29.88 in 10.0 mi Calm Calm - N/A   Partly Cloudy
10:36 AM 68.0 °F 55.9 °F 65% 29.89 in 10.0 mi WSW 5.8 mph - N/A   Mostly Cloudy
10:53 AM 68.0 °F 55.9 °F 65% 29.88 in 10.0 mi SW 3.5 mph - N/A   Scattered Clouds
11:53 AM 69.1 °F 55.9 °F 63% 29.87 in 10.0 mi West 8.1 mph - N/A   Clear
12:53 PM 69.1 °F 55.9 °F 63% 29.85 in 10.0 mi West 9.2 mph - N/A   Clear
1:53 PM 69.1 °F 57.0 °F 65% 29.84 in 10.0 mi SW 8.1 mph - N/A   Clear
2:48 PM 69.8 °F 57.2 °F 64% 29.84 in 10.0 mi SW 10.4 mph - N/A   Mostly Cloudy
2:53 PM 68.0 °F 57.9 °F 70% 29.84 in 10.0 mi WSW 11.5 mph - N/A   Mostly Cloudy
3:53 PM 66.9 °F 57.0 °F 70% 29.84 in 10.0 mi WSW 8.1 mph - N/A   Mostly Cloudy
4:35 PM 66.0 °F 57.0 °F 73% 29.84 in 10.0 mi West 5.8 mph - N/A   Partly Cloudy
4:53 PM 66.0 °F 57.0 °F 73% 29.84 in 10.0 mi WSW 8.1 mph - N/A   Clear
5:53 PM 64.9 °F 57.0 °F 75% 29.84 in 10.0 mi West 6.9 mph - N/A   Mostly Cloudy
6:53 PM 64.9 °F 55.9 °F 73% 29.85 in 10.0 mi WSW 5.8 mph - N/A   Overcast
7:53 PM 64.9 °F 55.9 °F 73% 29.87 in 10.0 mi WSW 5.8 mph - N/A   Overcast
8:53 PM 64.9 °F 55.9 °F 73% 29.88 in 10.0 mi WSW 4.6 mph - N/A   Overcast
9:53 PM 64.9 °F 55.9 °F 73% 29.88 in 10.0 mi SW 3.5 mph - N/A   Overcast
10:53 PM 64.0 °F 55.9 °F 75% 29.88 in 10.0 mi South 5.8 mph - N/A   Overcast
11:53 PM 64.0 °F 55.9 °F 75% 29.89 in 10.0 mi Calm Calm - N/A   Overcast